sat.trackr.live / text

‹ back to catalog

STRIX-1

NORAD 53815 · 2022-113A

PAYLOAD ACTIVE UNKNOWN

§ Identity

Operator
Country
JPN
Launch date
2022-09-15
Launch site
RLLB
Launch vehicle
Mass (kg)
RCS (m²)

External: N2YO · Heavens-Above · Gunter

§ Orbital elements

Epoch: 2026-05-25T04:06:37.976832Z

Period
93.59 min
Inclination
97.4511°
Eccentricity
0.0002316
Mean motion
15.38640199 rev/d
Perigee alt
448.5 km
Apogee alt
451.7 km
Semi-major
6,828.3 km
B*
5.7567e-4
RAAN
206.8032°
Arg perigee
336.1064°
Mean anomaly
24.0073°
Rev number
20,390

§ Raw data

STRIX-11 53815U 22113A   26145.17127288  .00021924  00000+0  57567-3 0  99952 53815  97.4511 206.8032 0002316 336.1064  24.0073 15.38640199203903

JSON: /api/v1/satellites/53815 · /tle

For live sub-satellite position, see the globe view (requires WebGL).

§ Visibility from observer

Set your observer location to see the next 7 days of passes ≥ 10°. The values pass through the URL so the page stays shareable.

No JS? Fill the form by hand. The geolocation button needs JavaScript.